Regional Weather Roundup
Issued by NWS

Home | Current Version | Previous Version | Graphics & Text | Print | Product List | Glossary On
Versions: 1 2 3 4 5 6 7 8 9 10 11 12 13 14 15 16 17 18 19 20 21 22 23 24 25 26 27 28 29 30 31 32 33 34 35 36 37 38 39 40 41 42 43 44 45 46 47 48 49 50
000
ASUS43 KOAX 211502
RWRNE

WEATHER ROUNDUP FOR NEBRASKA
NATIONAL WEATHER SERVICE OMAHA NE
1000 AM CDT SAT OCT 21 2017

NOTES: SATELLITE DATA IS BEING USED TO AUGMENT CLOUD COVER ABOVE
       12000 FEET.
       "FAIR" INDICATES FEW OR NO CLOUDS BELOW 12,000 FEET WITH NO
       SIGNIFICANT WEATHER AND/OR OBSTRUCTIONS TO VISIBILITY.


NEZ001>004-019>022-054>056-211600-
NEBRASKA PANHANDLE

CITY           SKY/WX    TMP DP  RH WIND       PRES   REMARKS
SCOTTSBLUFF    CLOUDY    45  22  40 W16G24    29.90R
ALLIANCE       CLOUDY    46  24  42 W14       29.86R HAZE
CHADRON        CLOUDY    48  23  37 W16       29.85R
GORDON         CLOUDY    45  40  83 CALM      29.82R
KIMBALL        CLOUDY    42  21  43 W24G35    29.92R
SIDNEY         CLOUDY    48  21  34 NW21      29.91R
$$

NEZ057>060-069>072-079>082-211600-
SOUTHWEST NEBRASKA

CITY           SKY/WX    TMP DP  RH WIND       PRES   REMARKS
NORTH PLATTE   CLOUDY    53  33  46 NW31G40   29.79R
IMPERIAL       LGT RAIN  42  38  85 N20G29    29.87R
LEXINGTON      MOSUNNY   58  39  49 NW22G30   29.70R
MCCOOK         CLOUDY    56  32  40 NW37G52   29.79R
OGALLALA       LGT RAIN  46  39  77 NW17G23   29.88R
$$

NEZ005>010-023>029-035>040-094-211600-
NORTH CENTRAL NEBRASKA

CITY           SKY/WX    TMP DP  RH WIND       PRES   REMARKS
VALENTINE      LGT RAIN  46  40  79 NW16G25   29.78R
AINSWORTH      CLOUDY    50  38  65 NW23G32   29.75R
BROKEN BOW     CLOUDY    56  40  55 NW28G43   29.69R
O`NEILL        CLOUDY    55  42  60 NW23G36   29.64R
ORD            CLOUDY    58  45  62 NW30G41   29.65R
THEDFORD       CLOUDY    48  38  68 NW22G32   29.80R
$$

NEZ041-046>049-061>064-073>077-083>087-211600-
SOUTH CENTRAL NEBRASKA

CITY           SKY/WX    TMP DP  RH WIND       PRES   REMARKS
GRAND ISLAND   CLOUDY    67  61  81 SW17      29.59R
AURORA         CLOUDY    68  61  77 S23G29    29.59R
HASTINGS       CLOUDY    66  58  75 SW17G25   29.59R
HEBRON         CLOUDY    71  62  73 S23G30    29.63S
HOLDREGE       SUNNY     60  47  60 NW26G37   29.65R
KEARNEY        MOSUNNY   62  48  60 NW25G41   29.62R
YORK           CLOUDY    70  63  78 S18G28    29.60R
$$

NEZ011>018-030>034-042>045-211600-
NORTHEAST NEBRASKA

CITY           SKY/WX    TMP DP  RH WIND       PRES   REMARKS
NORFOLK        CLOUDY    69  61  75 S14G25    29.56R
ALBION         CLOUDY    69  61  77 SW10      29.58R
BLAIR          CLOUDY    68  63  82 S21       29.63F
COLUMBUS       CLOUDY    70  62  76 S21G26    29.59R
FREMONT        SUNNY     71  61  71 S24G31    29.61R
TEKAMAH        CLOUDY    69  61  75 S18       29.61S
WAYNE          CLOUDY    70  64  80 S16G26    29.57R
$$

NEZ050>053-065>068-078-088>093-211600-
SOUTHEAST NEBRASKA

CITY           SKY/WX    TMP DP  RH WIND       PRES   REMARKS
LINCOLN        CLOUDY    70  62  76 S21G28    29.63R
OMAHA EPPLEY   CLOUDY    69  61  75 S20       29.66S
BEATRICE       CLOUDY    69  63  80 S23G30    29.66S
FALLS CITY     CLOUDY    69  61  75 S24G37    29.71S
NEBRASKA CITY  CLOUDY    68  64  86 S23G29    29.70R
PLATTSMOUTH    CLOUDY    68  62  82 S21G29    29.69R
$$

NEZ044-045-051>053-067-211600-
OMAHA AREA

CITY           SKY/WX    TMP DP  RH WIND       PRES   REMARKS
OMAHA EPPLEY   CLOUDY    69  61  75 S20       29.66S
BLAIR          CLOUDY    68  63  82 S21       29.63F
FREMONT        SUNNY     71  61  71 S24G31    29.61R
MILLARD        CLOUDY    70  64  80 S15       29.66S
OFFUTT AFB     CLOUDY    69  61  76 S18G29    29.66R
PLATTSMOUTH    CLOUDY    68  62  82 S21G29    29.69R
WAHOO          PTSUNNY   71  62  73 S22G36    29.62S
$$




USA.gov is the U.S. government's official web portal to all federal, state and local government web resources and services.